Regional Weather Roundup
Issued by NWS Burlington, VT

Current Version | Previous Version | Text Only | Print | Product List | Glossary Off
Versions: 1 2 3 4 5 6 7 8 9 10 11 12 13 14 15 16 17 18 19 20 21 22 23 24 25 26 27 28 29 30 31 32 33 34 35 36 37 38 39 40 41 42 43 44 45 46 47 48 49 50

000
ASUS41 KBTV 010630
RWRBTV
VERMONT REGIONAL WEATHER ROUNDUP
NATIONAL WEATHER SERVICE BURLINGTON VT
200 AM EDT FRI AUG 01 2014

NOTE: "FAIR" INDICATES FEW OR NO CLOUDS BELOW 12,000 FEET WITH NO
SIGNIFICANT WEATHER AND/OR OBSTRUCTIONS TO VISIBILITY.

* THESE REPORTS ARE NOT UNDER NWS QUALITY CONTROL AND/OR DO NOT
  REPORT WEATHER SUCH AS PRECIPITATION AND FOG.

VTZ001>019-010700-
_____VERMONT_____


CITY           SKY/WX    TMP DP  RH WIND       PRES   REMARKS
BURLINGTON     PTCLDY    64  59  83 S5        30.11S
6HR MIN TEMP:  62; 6HR MAX TEMP:  69;

MONTPELIER     CLOUDY    57  56  96 CALM      30.19R
6HR MIN TEMP:  55; 6HR MAX TEMP:  64;

ST. JOHNSBURY*   N/A     55  55 100 MISG      30.14S
6HR MIN TEMP:  55; 6HR MAX TEMP:  66;

LYNDONVILLE*   FOG       54  52  92 CALM      30.18S VSB 1/4
6HR MIN TEMP:  53; 6HR MAX TEMP:  66;

MIDDLEBURY*    FAIR      61  61 100 SE5       30.13F
6HR MIN TEMP:  61; 6HR MAX TEMP:  67;

RUTLAND*       CLEAR     57  55  94 SE10      30.15S
6HR MIN TEMP:  59; 6HR MAX TEMP:  66;

SPRINGFIELD    CLOUDY    58  58 100 W5        30.18R FOG
6HR MIN TEMP:  58; 6HR MAX TEMP:  67;

HIGHGATE*      FAIR      59  57  93 S3        30.11R
6HR MIN TEMP:  58; 6HR MAX TEMP:  65;

NEWPORT*       FAIR      53  52  98 SW6       30.15S FOG
6HR MIN TEMP:  53; 6HR MAX TEMP:  64;

BENNINGTON     CLEAR     56  54  93 CALM      30.16S FOG
6HR MIN TEMP:  55; 6HR MAX TEMP:  61;

SUTTON*          N/A     57 N/A N/A MISG        N/A
GALLUP MILLS*    N/A     36 N/A N/A MISG        N/A
UNION VILLAGE*   N/A     57 N/A N/A MISG        N/A
MT. MANSFIELD*   N/A     52 N/A N/A W12         N/A

_____LAKE CHAMPLAIN_____


CITY           SKY/WX    TMP DP  RH WIND       PRES   REMARKS
COLCHESTER RF*   N/A     66  61  82 SW10        N/A
DIAMOND ISL*     N/A     66  61  82 S8          N/A

$$

NYZ007-026>031-035-052-083-010700-
_____NORTHERN NEW YORK_____


CITY           SKY/WX    TMP DP  RH WIND       PRES   REMARKS
PLATTSBURGH    CLEAR     57  54  89 SW3       30.10S
6HR MIN TEMP:  55; 6HR MAX TEMP:  63;

SARANAC LAKE   PTCLDY    44  43  96 CALM      30.13S FOG
6HR MIN TEMP:  45; 6HR MAX TEMP:  61;

MASSENA        CLEAR     53  53 100 CALM      30.08S
6HR MIN TEMP:  53; 6HR MAX TEMP:  66;

OGDENSBURG*    CLEAR     57  55  94 S3        30.08R
POTSDAM*       CLEAR     59  55  88 S5        30.09S
PARISHVILLE*     N/A     61 N/A N/A S7          N/A
WATERTOWN      CLEAR     61  51  70 VRB3      30.09S
6HR MIN TEMP:  58; 6HR MAX TEMP:  69;

FT DRUM        CLEAR     58  55  89 SE7       30.09F
6HR MIN TEMP:  58; 6HR MAX TEMP:  68;

ALBANY         PTCLDY    62  60  93 CALM      30.14S
6HR MIN TEMP:  62; 6HR MAX TEMP:  71;

GLENS FALLS    FOG       58  56  93 SE3       30.14R VSB 1
6HR MIN TEMP:  58; 6HR MAX TEMP:  70;


$$
NHZ002-005-011-010700-
_____NEW HAMPSHIRE_____


CITY           SKY/WX    TMP DP  RH WIND       PRES   REMARKS
LEBANON        CLEAR     57  55  93 NE3       30.15S FOG
6HR MIN TEMP:  57; 6HR MAX TEMP:  67;

KEENE          CLOUDY    61  52  72 CALM      30.18S VSB 1/4
6HR MIN TEMP:  61; 6HR MAX TEMP:  64; 6HR PCP:  0.04;

MT WASHINGTON  MOCLDY    45  41  87 W37         N/A
6HR MIN TEMP:  43; 6HR MAX TEMP:  46;

PLYMOUTH       FOG       55  54  96 CALM      30.17S VSB 1/4
6HR MIN TEMP:  54; 6HR MAX TEMP:  66;

WHITEFIELD     CLOUDY    49  47  93 CALM      30.17R FOG

$$

_____REGIONAL QUEBEC LOCATIONS_____


CITY           SKY/WX    TMP DP  RH WIND       PRES   REMARKS
MONTREAL       CLEAR     64  55  72 S9        30.07F
QUEBEC CITY    MOCLDY    55  55 100 CALM      30.10S
SHERBROOKE     CLEAR     54  54 100 E2        30.13S

_____REGIONAL ONTARIO LOCATIONS_____


CITY           SKY/WX    TMP DP  RH WIND       PRES   REMARKS
OTTAWA         PTCLDY    59  57  94 S3        30.05F

______KEY______
VSB  - VISIBILITY IN MILES
WCI  - WIND CHILL INDEX
HX   - HEAT INDEX
$$
NNNN



USA.gov is the U.S. government's official web portal to all federal, state and local government web resources and services.